| time (UTC) | temp F | wind direction | speed knots | gust knots | rain 1hr in | rain 24hr in | rain mn in | humidity % | barometer mb |
| 20260510031546 | 52 | 229 | 2.6 | 8.7 | 0.00 | 0.22 | 0.22 | 94 | 1008.6 |
| 20260510030037 | 52 | 236 | 0.9 | 3.5 | 0.00 | 0.22 | 0.22 | 94 | 1008.2 |
| 20260510024537 | 52 | 0 | 0.0 | 2.6 | 0.00 | 0.23 | 0.22 | 94 | 1008.1 |
| 20260510023040 | 52 | 0 | 0.0 | 1.7 | 0.00 | 0.23 | 0.22 | 93 | 1008.4 |
| 20260510021539 | 52 | 0 | 0.0 | 3.5 | 0.00 | 0.23 | 0.22 | 93 | 1008.3 |
| 20260510020037 | 53 | 236 | 0.0 | 3.5 | 0.00 | 0.23 | 0.22 | 93 | 1008.4 |
| 20260510014538 | 53 | 236 | 0.0 | 3.5 | 0.00 | 0.23 | 0.22 | 93 | 1008.2 |
| 20260510013037 | 53 | 236 | 0.0 | 6.1 | 0.00 | 0.23 | 0.22 | 94 | 1008.0 |
| 20260510011543 | 53 | 237 | 2.6 | 6.1 | 0.00 | 0.23 | 0.22 | 94 | 1007.7 |
| 20260510010038 | 53 | 237 | 2.6 | 7.8 | 0.00 | 0.23 | 0.22 | 93 | 1007.6 |
| 20260510004539 | 54 | 238 | 2.6 | 7.8 | 0.00 | 0.30 | 0.22 | 93 | 1007.5 |
| 20260510003039 | 54 | 242 | 5.2 | 11.3 | 0.01 | 0.30 | 0.22 | 94 | 1007.5 |
| 20260510001537 | 54 | 237 | 4.3 | 10.4 | 0.07 | 0.30 | 0.22 | 93 | 1007.4 |
| 20260510000045 | 54 | 242 | 5.2 | 8.7 | 0.13 | 0.30 | 0.22 | 93 | 1007.4 |
| 20260509234536 | 54 | 307 | 1.7 | 7.8 | 0.19 | 0.34 | 0.22 | 93 | 1007.2 |
| 20260509233038 | 53 | 309 | 2.6 | 13.0 | 0.17 | 0.32 | 0.20 | 92 | 1007.3 |
| 20260509231538 | 53 | 288 | 6.1 | 16.5 | 0.12 | 0.27 | 0.15 | 91 | 1008.1 |
| 20260509230037 | 54 | 300 | 12.2 | 26.1 | 0.05 | 0.20 | 0.08 | 87 | 1007.6 |
| 20260509224548 | 65 | 284 | 14.8 | 36.5 | 0.00 | 0.15 | 0.03 | 61 | 1007.2 |
| 20260509223038 | 66 | 223 | 7.8 | 15.6 | 0.00 | 0.15 | 0.03 | 59 | 1005.3 |
| 20260509221547 | 66 | 159 | 6.1 | 14.8 | 0.00 | 0.15 | 0.03 | 59 | 1005.1 |
| 20260509220040 | 67 | 234 | 6.1 | 13.9 | 0.00 | 0.15 | 0.03 | 59 | 1005.1 |
| 20260509214539 | 68 | 188 | 5.2 | 20.9 | 0.00 | 0.15 | 0.03 | 59 | 1004.7 |
| 20260509213037 | 68 | 248 | 7.0 | 23.5 | 0.00 | 0.15 | 0.03 | 57 | 1004.7 |
| 20260509211537 | 68 | 202 | 7.0 | 20.0 | 0.00 | 0.15 | 0.03 | 56 | 1005.0 |
| 20260509210037 | 69 | 176 | 7.0 | 20.9 | 0.00 | 0.15 | 0.03 | 57 | 1005.1 |
| 20260509204550 | 68 | 232 | 7.0 | 20.0 | 0.00 | 0.15 | 0.03 | 59 | 1005.3 |
| 20260509203037 | 66 | 174 | 8.7 | 20.9 | 0.00 | 0.15 | 0.03 | 58 | 1005.6 |
| 20260509201547 | 68 | 210 | 7.8 | 20.0 | 0.00 | 0.15 | 0.03 | 57 | 1005.7 |
| 20260509200046 | 68 | 242 | 6.1 | 16.5 | 0.00 | 0.15 | 0.03 | 60 | 1005.7 |
| 20260509194537 | 68 | 192 | 5.2 | 18.2 | 0.00 | 0.15 | 0.03 | 61 | 1006.2 |
| 20260509193037 | 67 | 254 | 7.0 | 17.4 | 0.00 | 0.15 | 0.03 | 59 | 1006.4 |
| 20260509191537 | 67 | 187 | 7.8 | 17.4 | 0.00 | 0.15 | 0.03 | 59 | 1006.7 |
| 20260509190038 | 66 | 163 | 9.6 | 20.0 | 0.00 | 0.15 | 0.03 | 59 | 1006.7 |
| 20260509184536 | 67 | 170 | 8.7 | 17.4 | 0.00 | 0.15 | 0.03 | 57 | 1006.6 |
| 20260509183043 | 67 | 188 | 7.0 | 14.8 | 0.00 | 0.15 | 0.03 | 60 | 1006.6 |
| 20260509181546 | 67 | 204 | 6.1 | 15.6 | 0.00 | 0.15 | 0.03 | 62 | 1006.7 |
| 20260509180050 | 66 | 164 | 6.1 | 13.9 | 0.00 | 0.15 | 0.03 | 64 | 1006.8 |
| 20260509174542 | 65 | 204 | 7.8 | 19.1 | 0.00 | 0.15 | 0.03 | 66 | 1006.9 |
| 20260509173037 | 66 | 239 | 7.0 | 15.6 | 0.00 | 0.15 | 0.03 | 65 | 1006.9 |
| 20260509171542 | 65 | 269 | 5.2 | 13.9 | 0.00 | 0.15 | 0.03 | 67 | 1007.0 |
| 20260509170037 | 63 | 221 | 5.2 | 13.9 | 0.00 | 0.15 | 0.03 | 69 | 1006.9 |
| 20260509164550 | 62 | 239 | 7.8 | 14.8 | 0.00 | 0.15 | 0.03 | 69 | 1007.0 |
| 20260509163042 | 60 | 247 | 5.2 | 13.9 | 0.00 | 0.15 | 0.03 | 73 | 1007.3 |
| 20260509161538 | 61 | 274 | 6.1 | 16.5 | 0.00 | 0.15 | 0.03 | 70 | 1007.6 |
| 20260509160038 | 61 | 249 | 7.8 | 14.8 | 0.00 | 0.15 | 0.03 | 74 | 1007.8 |
| 20260509154537 | 61 | 164 | 4.3 | 12.2 | 0.00 | 0.15 | 0.03 | 78 | 1007.7 |
| 20260509153036 | 59 | 193 | 4.3 | 13.0 | 0.00 | 0.15 | 0.03 | 82 | 1007.7 |
| 20260509151538 | 58 | 196 | 5.2 | 14.8 | 0.00 | 0.15 | 0.03 | 86 | 1007.6 |
| 20260509150048 | 56 | 251 | 6.1 | 11.3 | 0.00 | 0.15 | 0.03 | 90 | 1007.8 |
| 20260509144538 | 56 | 234 | 5.2 | 12.2 | 0.00 | 0.15 | 0.03 | 93 | 1007.9 |
| 20260509143038 | 55 | 234 | 4.3 | 10.4 | 0.00 | 0.15 | 0.03 | 94 | 1007.9 |
| 20260509141537 | 54 | 221 | 3.5 | 7.8 | 0.00 | 0.15 | 0.03 | 95 | 1007.7 |
| 20260509140037 | 54 | 261 | 2.6 | 8.7 | 0.00 | 0.15 | 0.03 | 95 | 1007.8 |
| 20260509134548 | 53 | 233 | 1.7 | 6.1 | 0.00 | 0.15 | 0.03 | 95 | 1007.7 |
| 20260509133041 | 53 | 241 | 3.5 | 9.6 | 0.00 | 0.15 | 0.03 | 95 | 1007.8 |
| 20260509131548 | 53 | 198 | 2.6 | 6.1 | 0.00 | 0.15 | 0.03 | 95 | 1007.9 |
| 20260509130040 | 52 | 202 | 1.7 | 7.0 | 0.00 | 0.15 | 0.03 | 95 | 1007.9 |
| 20260509124537 | 52 | 209 | 2.6 | 5.2 | 0.00 | 0.15 | 0.03 | 95 | 1008.0 |
| 20260509123037 | 52 | 211 | 1.7 | 5.2 | 0.00 | 0.15 | 0.03 | 95 | 1008.0 |
| 20260509121543 | 51 | 218 | 1.7 | 5.2 | 0.00 | 0.15 | 0.03 | 95 | 1008.2 |
| 20260509120038 | 51 | 0 | 0.9 | 4.3 | 0.00 | 0.15 | 0.03 | 95 | 1008.3 |
| 20260509114543 | 51 | 0 | 0.0 | 4.3 | 0.00 | 0.15 | 0.03 | 95 | 1008.3 |
| 20260509113039 | 51 | 0 | 0.0 | 4.3 | 0.00 | 0.15 | 0.03 | 95 | 1008.2 |
| 20260509111537 | 51 | 190 | 0.9 | 4.3 | 0.00 | 0.15 | 0.03 | 95 | 1008.0 |
| 20260509110043 | 51 | 0 | 1.7 | 4.3 | 0.00 | 0.15 | 0.03 | 95 | 1007.9 |
| 20260509104542 | 51 | 0 | 0.9 | 4.3 | 0.00 | 0.15 | 0.03 | 95 | 1007.9 |
| 20260509103040 | 50 | 191 | 1.7 | 6.1 | 0.00 | 0.15 | 0.03 | 95 | 1008.2 |
| 20260509101548 | 50 | 188 | 0.0 | 6.1 | 0.00 | 0.15 | 0.03 | 95 | 1008.0 |
| 20260509100037 | 50 | 190 | 0.9 | 4.3 | 0.00 | 0.15 | 0.03 | 95 | 1008.1 |
| 20260509094537 | 50 | 190 | 0.9 | 5.2 | 0.00 | 0.15 | 0.03 | 95 | 1008.1 |
| 20260509093035 | 50 | 0 | 0.0 | 4.3 | 0.00 | 0.15 | 0.03 | 95 | 1008.3 |
| 20260509091540 | 50 | 0 | 0.9 | 4.3 | 0.00 | 0.15 | 0.03 | 95 | 1008.5 |
| 20260509090037 | 50 | 0 | 0.0 | 4.3 | 0.00 | 0.15 | 0.03 | 95 | 1008.4 |
| 20260509084537 | 50 | 190 | 0.9 | 5.2 | 0.00 | 0.15 | 0.03 | 95 | 1008.6 |
| 20260509083044 | 50 | 194 | 1.7 | 4.3 | 0.00 | 0.15 | 0.03 | 95 | 1008.7 |
| 20260509081537 | 50 | 0 | 2.6 | 6.1 | 0.00 | 0.15 | 0.03 | 95 | 1008.7 |
| 20260509080042 | 50 | 194 | 0.9 | 7.0 | 0.00 | 0.15 | 0.03 | 95 | 1008.7 |
| 20260509074552 | 50 | 202 | 1.7 | 5.2 | 0.00 | 0.15 | 0.03 | 95 | 1008.7 |
| 20260509073037 | 50 | 0 | 0.9 | 5.2 | 0.00 | 0.15 | 0.03 | 95 | 1008.8 |
| 20260509071537 | 50 | 203 | 1.7 | 5.2 | 0.00 | 0.15 | 0.03 | 95 | 1008.9 |
| 20260509070036 | 50 | 203 | 2.6 | 4.3 | 0.01 | 0.15 | 0.03 | 95 | 1009.0 |
| 20260509064556 | 50 | 202 | 0.9 | 7.0 | 0.01 | 0.15 | 0.03 | 95 | 1009.1 |
| 20260509063045 | 50 | 203 | 1.7 | 6.1 | 0.01 | 0.15 | 0.03 | 95 | 1009.2 |
| 20260509061542 | 50 | 204 | 1.7 | 6.1 | 0.01 | 0.15 | 0.03 | 95 | 1009.3 |
| 20260509060038 | 50 | 205 | 0.9 | 7.8 | 0.00 | 0.14 | 0.02 | 95 | 1009.3 |
| 20260509054537 | 50 | 210 | 2.6 | 7.0 | 0.01 | 0.14 | 0.02 | 95 | 1009.5 |
| 20260509053036 | 50 | 200 | 2.6 | 7.0 | 0.02 | 0.14 | 0.02 | 95 | 1009.7 |
| 20260509051540 | 50 | 197 | 0.9 | 6.1 | 0.02 | 0.14 | 0.02 | 95 | 1009.7 |
| 20260509050039 | 50 | 197 | 0.9 | 5.2 | 0.02 | 0.14 | 0.02 | 95 | 1009.8 |
| 20260509044537 | 50 | 188 | 0.9 | 4.3 | 0.01 | 0.13 | 0.01 | 94 | 1010.0 |
| 20260509043050 | 50 | 188 | 1.7 | 6.1 | 0.00 | 0.12 | 0.00 | 94 | 1010.1 |
| 20260509041538 | 49 | 175 | 3.5 | 11.3 | 0.00 | 0.12 | 0.00 | 94 | 1010.3 |
| 20260509040043 | 49 | 167 | 2.6 | 9.6 | 0.00 | 0.12 | 0.00 | 94 | 1010.5 |
| 20260509034548 | 49 | 180 | 1.7 | 6.1 | 0.00 | 0.12 | 0.12 | 94 | 1010.8 |
| 20260509033052 | 49 | 181 | 0.9 | 7.8 | 0.00 | 0.12 | 0.12 | 94 | 1010.8 |